STARLINK-2493 (48150 NORAD) Tracking and Keplerian Element Data

This shows tracking and keplerian element data for the satellite.

Feedback or suggestion? Click here.




ElementValue
Catalog48150
NameSTARLINK-2493
Epoch Orbit187
Epoch Day136.91668981
Epoch Year2021
RAAN145.4118
Inclination53.0474
Eccentricity0.0002323
Argument of Perigee17.1355
Mean Anonmoly239.822
Mean Motion15.73196521
Decay Rate0.00044218
L11 48150U 21027BL 21136.91668981 .00044218 00000-0 31779-3 0 9990
L22 48150 53.0474 145.4118 0002323 17.1355 239.8220 15.73196521 1871

Live tracking and technical data element details for STARLINK-2493 (NORAD 48150). STARLINK-2493 can be tracked NOW for your location showing map with azimuth and elevation plus other details from your city location.

Track the satellite on the map from your city or location and see movement details for azimuth, elevation, latitude, longitude, range, height, and movement on the map or in text.







IsCatalogInMostPopularTable: catalog: 48150, numindb: 19
Update: records affected: 1



GetName: 48150 STARLINK-2493

Hit Count: updated at: Mon, 17 May 2021 15:54:24 GMT